Location: Egypt
(35.2429°N, 89.9254°W)
Time: 14:12:25
(UTC+00:00)

Envisat - Visible Passes

Search period start: 07 October 2024 00:00
Search period end: 17 October 2024 00:00
Orbit: 762 x 764 km, 98.3° (Epoch: 07 October)

Date Brightness Start Highest point End Pass type
(mag) Time Alt. Az. Time Alt. Az. Time Alt. Az.
07 Oct 5.7 08:40:22 10° NNE 08:40:56 13° NNE 08:40:56 13° NNE visible
07 Oct 5.1 10:20:32 10° NNW 10:21:05 12° NNW 10:21:05 12° NNW visible
08 Oct 5.1 09:41:56 10° N 09:43:02 16° N 09:43:02 16° N visible
09 Oct 5.4 09:04:12 10° NNE 09:04:58 15° NNE 09:04:58 15° NNE visible
10 Oct 5.2 10:06:31 10° NNW 10:07:03 12° NNW 10:07:03 12° NNW visible
11 Oct 5.3 09:28:17 10° N 09:29:00 14° N 09:29:00 14° N visible
12 Oct 5.8 08:50:46 10° NNE 08:50:57 11° NNE 08:50:57 11° NNE visible
13 Oct 5.3 09:52:39 10° N 09:53:01 12° NNW 09:53:01 12° NNW visible
14 Oct 5.6 09:14:42 10° N 09:14:57 11° N 09:14:57 11° N visible
16 Oct 5.5 09:38:54 10° N 09:38:57 10° N 09:38:57 10° N visible
